Regional Weather Roundup
Issued by NWS

Home | Current Version | Previous Version | Graphics & Text | Print | Product List | Glossary On
Versions: 1 2 3 4 5 6 7 8 9 10 11 12 13 14 15 16 17 18 19 20 21 22 23 24 25 26 27 28 29 30 31 32 33 34 35 36 37 38 39 40 41 42 43 44 45 46 47 48 49 50
000
ASUS43 KIND 061809
RWRIN

WEATHER ROUNDUP FOR INDIANA
NATIONAL WEATHER SERVICE INDIANAPOLIS IN
100 PM EST FRI MAR 06 2015

NOTE: "FAIR" INDICATES FEW OR NO CLOUDS BELOW 12,000 FEET WITH NO
SIGNIFICANT WEATHER AND/OR OBSTRUCTIONS TO VISIBILITY.

* - STATION DOES NOT REPORT WEATHER SUCH AS PRECIPITATION OR FOG.

+ - STATION NOT QUALITY CONTROLLED BY THE NATIONAL WEATHER SERVICE.
    USE DATA WITH CAUTION...ESPECIALLY DEWPOINT AND RELATIVE
    HUMIDITY OBSERVATIONS.

INZ001>003-010>013-019-020-061900-
NORTHWEST INDIANA

CITY           SKY/WX    TMP DP  RH WIND       PRES   REMARKS
GARY /AIRPORT/ MOSUNNY   21   3  45 MISG      30.38F
KNOX *+          N/A     18  -8  32 SW15      30.40F WCI   3
LA PORTE +     FAIR      19   6  57 SW13G22   30.39F WCI   6
6HR MIN TEMP:   0; 6HR MAX TEMP:  19;

MICHIGAN CITY+ FAIR      21   1  42 S13G23    30.38F WCI   9
MONTICELLO +   FAIR      20   6  55 SW14      30.43F WCI   6
6HR MIN TEMP:  -1; 6HR MAX TEMP:  20;

RENSSELAER +   FAIR      19  12  73 S15       30.41F WCI   5
VALPARAISO     FAIR      17   5  59 S15       30.38F WCI   2
6HR MIN TEMP:  -1; 6HR MAX TEMP:  17;


$$

LMZ046-743>745-061900-
SOUTHERN LAKE MICHIGAN

STATION/POSITION TIME  TEMP WIND        PRES
                       AIR  DIR/SP/G
                 (UTC) (F)  (DEG/KT/KT) (MB)
MICHIGAN CITY    1800   17  160/ 15/ 20   N/A

$$

INZ004-005-014>016-021>024-061900-
NORTH CENTRAL INDIANA

CITY           SKY/WX    TMP DP  RH WIND       PRES   REMARKS
ELKHART        FAIR      18   0  45 SW12G18   30.40  WCI   5
GOSHEN         FAIR      17   3  54 S15       30.39F WCI   2
6HR MIN TEMP:  -1; 6HR MAX TEMP:  17;

LOGANSPORT +   FAIR      21   9  58 SW14      30.44F WCI   8
PERU/GRISSOM   FAIR      20   9  63 SW16      30.41F WCI   6
6HR MIN TEMP:  -3; 6HR MAX TEMP:  20;

ROCHESTER +    FAIR      23   9  54 S14G20    30.43F WCI  11
SOUTH BEND     FAIR      19   5  54 S13       30.38F WCI   6
6HR MIN TEMP:   1; 6HR MAX TEMP:  19;

WARSAW +       FAIR      19   1  45 SW10G18   30.40F WCI   8

$$

INZ006>009-017-018-025>027-061900-
NORTHEAST INDIANA

CITY           SKY/WX    TMP DP  RH WIND       PRES   REMARKS
ANGOLA *+      SUNNY     18   1  49 SW13      30.38F WCI   4
AUBURN +       FAIR      23   5  46 SW8       30.42F WCI  14
FORT WAYNE     PTSUNNY   19   9  65 SW17G23   30.44F WCI   4
6HR MIN TEMP:  -3; 6HR MAX TEMP:  19;

HUNTINGTON +   FAIR      20   3  48 SW12      30.43F WCI   7
6HR MIN TEMP:  -3; 6HR MAX TEMP:  20;


$$

INZ028-029-035-036-043>045-051>053-061900-
WEST CENTRAL INDIANA

CITY           SKY/WX    TMP DP  RH WIND       PRES   REMARKS
CRAWFORDSVL +  FAIR      21   3  46 S14       30.44F WCI   8
6HR MIN TEMP:  -5; 6HR MAX TEMP:  21;

GREENCASTLE +  FAIR      25   3  39 SW8       30.46F WCI  16
LAFAYETTE      FAIR      20   5  52 SW14      30.44F WCI   7
6HR MIN TEMP:  -4; 6HR MAX TEMP:  20;

TERRE HAUTE    FAIR      22   6  50 S13       30.49F WCI  10
6HR MIN TEMP:  -5; 6HR MAX TEMP:  22;


$$

INZ030>032-037>040-046>048-054>057-064-065-061900-
CENTRAL INDIANA

CITY           SKY/WX    TMP DP  RH WIND       PRES   REMARKS
CP ATTERBURY + FAIR      28  10  47 S7        30.49F WCI  21
COLUMBUS       SUNNY     23   7  50 S14       30.51F WCI  11
FRANKFORT +    FAIR      23  12  64 S14       30.45F WCI  10
6HR MIN TEMP: -12; 6HR MAX TEMP:  23;

GREENWOOD *+   FAIR      23   5  46 S14       30.48F WCI  11
INDIANAPOLIS   FAIR      23   8  52 S13       30.44F WCI  11
6HR MIN TEMP:   2; 6HR MAX TEMP:  23;

-EAGLE CREEK   FAIR      23   7  50 SW10G21   30.45F WCI  12
6HR MIN TEMP:   2; 6HR MAX TEMP:  23;

KOKOMO *+        N/A    N/A N/A N/A MISG        N/A
MARION +       FAIR      20  10  64 S14       30.45F WCI   7
MT COMFORT *+  FAIR      23   3  42 S12       30.47F WCI  12
SHELBYVILLE    FAIR      23  10  57 S15       30.48F WCI  10
6HR MIN TEMP:  -1; 6HR MAX TEMP:  23;

ZIONSVILLE +   FAIR      24   7  47 S14       30.44F WCI  12
6HR MIN TEMP:  -4; 6HR MAX TEMP:  24;


$$

INZ033-034-041-042-049-050-058-059-061900-
EAST CENTRAL INDIANA

CITY           SKY/WX    TMP DP  RH WIND       PRES   REMARKS
MUNCIE         FAIR      21   8  57 SW14G23   30.44F WCI   8
6HR MIN TEMP:   3; 6HR MAX TEMP:  21;


$$

INZ060-061-067>069-081>083-085>088-061900-
SOUTHWEST INDIANA

CITY           SKY/WX    TMP DP  RH WIND       PRES   REMARKS
EVANSVILLE     FAIR      23   9  55 SW10      30.57F WCI  12
6HR MIN TEMP:   2; 6HR MAX TEMP:  23;

HUNTINGBURG *+ FAIR      23  10  58 SW10      30.55F WCI  12
6HR MIN TEMP:  -2; 6HR MAX TEMP:  23;

WASHINGTON +   FAIR      24   9  52 SE9       30.52F WCI  15
6HR MIN TEMP:   1; 6HR MAX TEMP:  24;


$$

INZ062-063-066-070>080-084-089>092-061900-
SOUTH CENTRAL AND SOUTHEAST INDIANA

CITY           SKY/WX    TMP DP  RH WIND       PRES   REMARKS
BEDFORD +      FAIR      27  10  50 SE7       30.51F WCI  19
BLOOMINGTON    FAIR      25   7  46 SW12      30.47F WCI  14
6HR MIN TEMP:  -1; 6HR MAX TEMP:  25; 6HR PCP: TRACE;

NORTH VERNON + FAIR      25   9  50 SW10      30.52F WCI  15
SEYMOUR +      FAIR      27  10  50 S12       30.52F WCI  16

$$



USA.gov is the U.S. government's official web portal to all federal, state and local government web resources and services.